This demonstration page uses our WeatherBlox Daily Observations layout. Learn more.

Left ArrowRight Arrow

Hourly Observations for April 24, 2018

Temp ( °F °C ) Dew Point ( °F °C ) Humidity (%) Winds ( mph kmh ) Pressure ( in mb ) Visibility ( mi km ) Precip ( " mm )
12:53 am 00:53 Clear 48 8.9 38 3.3 68 68 Calm 30.12 1020 10 16 0.00 0.00
1:53 am 01:53 Clear 47 8.3 39 3.9 74 74 W 3 6 30.14 1021 10 16 0.00 0.00
2:53 am 02:53 Clear 46 7.8 38 3.3 73 73 Calm 30.13 1020 10 16 0.00 0.00
3:53 am 03:53 Clear 44 6.7 37 2.8 76 76 Calm 30.10 1019 10 16 0.00 0.00
4:53 am 04:53 Clear 45 7.2 40 4.4 83 83 Calm 30.10 1019 10 16 0.00 0.00
5:53 am 05:53 Mostly Cloudy 45 7.2 36 2.2 71 71 Calm 30.12 1020 10 16 0.00 0.00
6:53 am 06:53 Cloudy 48 8.9 39 3.9 71 71 NW 8 13 30.14 1021 10 16 0.00 0.00
7:53 am 07:53 Cloudy 51 10.6 42 5.6 71 71 WNW 5 7 30.16 1022 10 16 0.00 0.00
8:53 am 08:53 Mostly Cloudy 54 12.2 47 8.3 77 77 NNW 22 35 30.19 1022 10 16 0.00 0.00
9:53 am 09:53 Cloudy 51 10.6 44 6.7 77 77 NNW 20 31 30.21 1023 10 16 0.00 0.00
10:53 am 10:53 Cloudy 50 10 43 6.1 77 77 NNW 15 24 30.23 1024 10 16 0.00 0.00
11:42 am 11:42 Cloudy with Light Rain 46 8 45 7 93 93 NW 21 33 30.27 1025 10 16 0.00 0.00
11:53 am 11:53 Cloudy with Light Rain 47 8.3 43 6.1 86 86 NW 20 31 30.27 1025 10 16 0.01 0.25
12:09 pm 12:09 Cloudy with Light Rain 46 7.8 43 6.1 89 89 NW 21 33 30.30 1026 10 16 0.00 0.03
12:16 pm 12:16 Cloudy with Light Rain 46 7.8 42 5.6 86 86 NW 20 31 30.30 1026 10 16 0.00 0.03
12:53 pm 12:53 Cloudy with Light Rain 45 7.2 43 6.1 93 93 NW 22 35 30.29 1026 10 16 0.02 0.51
1:05 pm 13:05 Cloudy with Light Rain 45 7 43 6 93 93 NW 16 26 30.30 1026 7 11 0.00 0.00
1:15 pm 13:15 Cloudy with Light Rain 45 7.2 43 6.1 93 93 NW 18 30 30.30 1026 7 11 0.03 0.76
1:46 pm 13:46 Cloudy with Light Rain 45 7 43 6 93 93 NW 18 30 30.30 1026 7 11 0.00 0.00
1:53 pm 13:53 Cloudy with Rain 44 6.7 43 6.1 96 96 NW 16 26 30.29 1026 6 10 0.10 2.54
2:53 pm 14:53 Cloudy with Light Rain 45 7.2 43 6.1 93 93 NNW 14 22 30.27 1025 6 10 0.07 1.78
3:09 pm 15:09 Cloudy with Light Rain 45 7.2 43 6.1 93 93 NNW 18 30 30.27 1025 7 11 0.01 0.25
3:53 pm 15:53 Cloudy with Light Rain 45 7.2 44 6.7 97 97 NNW 20 31 30.26 1025 8 13 0.04 1.02
4:14 pm 16:14 Cloudy with Light Rain 46 7.8 44 6.7 93 93 NW 20 31 30.27 1025 10 16 0.01 0.25
4:53 pm 16:53 Cloudy with Light Rain 45 7.2 43 6.1 93 93 NW 18 30 30.26 1025 10 16 0.03 0.76
5:53 pm 17:53 Cloudy 46 7.8 44 6.7 93 93 NW 17 28 30.25 1025 10 16 0.01 0.25
6:09 pm 18:09 Cloudy 46 7.8 44 6.7 93 93 NNW 16 26 30.27 1025 10 16 0.00 0.00
6:53 pm 18:53 Cloudy 46 7.8 44 6.7 93 93 NNW 20 31 30.25 1024 10 16 0.00 0.00
7:53 pm 19:53 Cloudy 44 6.7 43 6.1 96 96 N 22 35 30.25 1024 9 14 0.00 0.00
8:53 pm 20:53 Cloudy with Mist and Fog 44 6.7 43 6.1 96 96 N 22 35 30.27 1025 6 10 0.00 0.00
9:53 pm 21:53 Cloudy with Light Rain 44 6.7 43 6.1 96 96 NNW 18 30 30.29 1026 3 5 0.00 0.03
10:53 pm 22:53 Cloudy with Light Rain 42 5.6 42 5.6 100 100 N 17 28 30.31 1026 4 6 0.00 0.03
11:53 pm 23:53 Cloudy 42 5.6 41 5 96 96 N 21 33 30.31 1026 10 16 0.00 0.03

Powered by AerisWeather